Weather History for CWWE - February, 2013

Change the Weather History Date:

Thursday, February 21, 2013

  Actual Average Record
Temperature  
Mean Temperature 33 °F -  
Max Temperature 38 °F - - ()
Min Temperature 28 °F - - ()
Degree Days  
Heating Degree Days 32    
Moisture  
Dew Point 27 °F    
Average Humidity 81    
Maximum Humidity 96    
Minimum Humidity 50    
Precipitation  
Precipitation 0.03 in - - ()
Sea Level Pressure  
Sea Level Pressure 29.60 in    
Wind  
Wind Speed 9 mph ()    
Max Wind Speed 15 mph    
Max Gust Speed -    
T = Trace of Precipitation, MM = Missing Value Source: Averaged Metar Reports

Daily Weather History Graph

Daily Weather History Graph

Search for Another Location

Airport or City:

Trip Planner

Search our weather history database for the weather conditions in past years. The results will help you decide how hot, cold, wet, or windy it might be!

Date:

Astronomy

Feb. 21, 2013 Rise Set
Actual Time 7:08 AM AST 5:56 PM AST
Civil Twilight 6:39 AM AST 6:26 PM AST
Nautical Twilight 6:05 AM AST 6:59 PM AST
Astronomical Twilight 5:32 AM AST 7:33 PM AST
Moon 2:02 PM AST (2/21) 4:15 AM AST (2/21)
Length of Visible Light 11h 47m
Length of Day
10h 48m
Waxing Gibbous, 83% of the Moon is Illuminated
Feb 21
Waxing Gibbous
Feb 25
Full
Mar 4
Last Quarter
Mar 11
New
Mar 19
First Quarter

Hourly Weather History & Observations

Time (AST) Temp. Windchill Dew Point Humidity Pressure Visibility Wind Dir Wind Speed Gust Speed Precip Events Conditions
12:00 AM 33.4 °F 23.9 °F 29.8 °F 87% 29.48 in - SW 13.8 mph - N/A   Unknown
1:00 AM 33.3 °F 24.1 °F 30.2 °F 89% 29.48 in - WSW 12.7 mph - N/A   Unknown
2:00 AM 33 °F - 31 °F 88% 29.49 in - WSW 10.4 mph - -  
2:00 AM 33.1 °F 24.9 °F 30.7 °F 91% 29.49 in - WSW 10.4 mph - N/A   Unknown
3:00 AM 32.0 °F 26.4 °F 31.1 °F 96% 29.49 in - West 5.8 mph - 0.03 in   Unknown
4:00 AM 31.5 °F 24.2 °F 30.6 °F 96% 29.51 in - West 8.1 mph - N/A   Unknown
5:00 AM 30 °F - 29 °F 92% 29.52 in - West 5.8 mph - -  
5:00 AM 30.2 °F 24.3 °F 28.6 °F 94% 29.52 in - West 5.8 mph - N/A   Unknown
6:00 AM 29.5 °F 22.5 °F 27.7 °F 93% 29.54 in - West 6.9 mph - N/A   Unknown
7:00 AM 29.1 °F 20.6 °F 27.0 °F 92% 29.57 in - WSW 9.2 mph - N/A   Unknown
8:00 AM 29 °F - 26 °F 84% 29.59 in - West 11.5 mph - -  
8:00 AM 28.9 °F 19.2 °F 26.1 °F 89% 29.59 in - West 11.5 mph - N/A   Unknown
9:00 AM 29.8 °F 20.9 °F 26.1 °F 86% 29.60 in - WSW 10.4 mph - N/A   Unknown
10:00 AM 30.9 °F 22.8 °F 25.9 °F 82% 29.62 in - West 9.2 mph - N/A   Unknown
11:00 AM 35 °F - 29 °F 71% 29.62 in - WSW 13.8 mph - -  
11:00 AM 34.9 °F 25.7 °F 29.1 °F 79% 29.62 in - WSW 13.8 mph - N/A   Unknown
12:00 PM 35.2 °F 25.8 °F 27.3 °F 73% 29.62 in - WSW 15.0 mph - N/A   Unknown
1:00 PM 34.5 °F 25.7 °F 24.8 °F 68% 29.60 in - West 12.7 mph - N/A   Unknown
2:00 PM 35 °F - 23 °F 50% 29.60 in - West 11.5 mph - -  
2:00 PM 35.2 °F 27.1 °F 23.2 °F 62% 29.60 in - West 11.5 mph - N/A   Unknown
3:00 PM 34.5 °F 27.9 °F 23.4 °F 64% 29.60 in - West 8.1 mph - N/A   Unknown
4:00 PM 34.7 °F 27.5 °F 25.5 °F 69% 29.61 in - West 9.2 mph - N/A   Unknown
5:00 PM 33 °F - 24 °F 60% 29.62 in - West 6.9 mph - -  
5:00 PM 33.4 °F 27.3 °F 24.4 °F 70% 29.62 in - West 6.9 mph - N/A   Unknown
6:00 PM 31.5 °F 25.8 °F 24.6 °F 76% 29.64 in - NW 5.8 mph - N/A   Unknown
7:00 PM 31.3 °F - 26.4 °F 82% 29.65 in - West 2.3 mph - N/A   Unknown
8:00 PM 31 °F - 27 °F 78% 29.67 in - NW 5.8 mph - -  
8:00 PM 31.5 °F 25.8 °F 26.8 °F 83% 29.67 in - NW 5.8 mph - N/A   Unknown
9:00 PM 31.1 °F 23.7 °F 28.0 °F 88% 29.68 in - NW 8.1 mph - N/A   Unknown
10:00 PM 31.8 °F 23.9 °F 28.9 °F 89% 29.70 in - NNW 9.2 mph - N/A   Unknown
11:00 PM 33 °F - 30 °F 83% 29.73 in - NNW 10.4 mph - -  
11:00 PM 32.9 °F 24.7 °F 29.8 °F 88% 29.73 in - North 10.4 mph - N/A   Unknown